| time (UTC) | temp F | wind direction | speed MPH | gust MPH | rain 1hr in | rain 24hr in | rain mn in | humidity % | barometer mb |
| 20260903153535 | 54 | 340 | 2.0 | 6.0 | 0.00 | 0.00 | 0.00 | 71 | 1019.1 |
| 20260903152517 | 53 | 262 | 4.0 | 7.0 | 0.00 | 0.00 | 0.00 | 71 | 1019.0 |
| 20260903151526 | 53 | 281 | 3.0 | 6.0 | 0.00 | 0.00 | 0.00 | 74 | 1019.0 |
| 20260903150534 | 53 | 325 | 3.0 | 6.0 | 0.00 | 0.00 | 0.00 | 77 | 1019.2 |
| 20260903145522 | 53 | 284 | 2.0 | 3.0 | 0.00 | 0.00 | 0.00 | 78 | 1019.1 |
| 20260903144537 | 53 | 335 | 4.0 | 9.0 | 0.00 | 0.00 | 0.00 | 79 | 1019.2 |
| 20260903143518 | 53 | 322 | 2.0 | 4.0 | 0.00 | 0.00 | 0.00 | 78 | 1019.1 |
| 20260903142524 | 53 | 294 | 3.0 | 7.0 | 0.00 | 0.00 | 0.00 | 78 | 1019.2 |
| 20260903141531 | 53 | 281 | 3.0 | 6.0 | 0.00 | 0.00 | 0.00 | 77 | 1019.2 |
| 20260903140535 | 53 | 305 | 3.0 | 9.0 | 0.00 | 0.00 | 0.00 | 76 | 1019.3 |
| 20260903135522 | 53 | 276 | 3.0 | 8.0 | 0.00 | 0.00 | 0.00 | 74 | 1019.2 |
| 20260903134528 | 53 | 217 | 2.0 | 5.0 | 0.00 | 0.00 | 0.00 | 72 | 1019.2 |
| 20260903133534 | 54 | 242 | 2.0 | 5.0 | 0.00 | 0.00 | 0.00 | 69 | 1019.3 |
| 20260903132519 | 54 | 288 | 2.0 | 5.0 | 0.00 | 0.00 | 0.00 | 68 | 1019.3 |
| 20260903131534 | 54 | 287 | 3.0 | 7.0 | 0.00 | 0.00 | 0.00 | 67 | 1019.3 |
| 20260903130531 | 54 | 281 | 4.0 | 9.0 | 0.00 | 0.00 | 0.00 | 66 | 1019.3 |
| 20260903125518 | 54 | 268 | 4.0 | 11.0 | 0.00 | 0.00 | 0.00 | 68 | 1019.3 |
| 20260903124529 | 54 | 278 | 5.0 | 12.0 | 0.00 | 0.00 | 0.00 | 69 | 1019.4 |
| 20260903123528 | 54 | 282 | 3.0 | 9.0 | 0.00 | 0.00 | 0.00 | 71 | 1019.3 |
| 20260903122535 | 53 | 313 | 5.0 | 9.0 | 0.00 | 0.00 | 0.00 | 74 | 1019.3 |
| 20260903121520 | 53 | 295 | 3.0 | 7.0 | 0.00 | 0.00 | 0.00 | 74 | 1019.3 |
| 20260903120527 | 53 | 314 | 5.0 | 9.0 | 0.00 | 0.00 | 0.00 | 75 | 1019.2 |
| 20260903115535 | 54 | 282 | 5.0 | 10.0 | 0.00 | 0.00 | 0.00 | 72 | 1019.2 |
| 20260903114522 | 53 | 275 | 5.0 | 9.0 | 0.00 | 0.00 | 0.00 | 75 | 1019.2 |
| 20260903113528 | 53 | 281 | 4.0 | 8.0 | 0.00 | 0.00 | 0.00 | 76 | 1019.1 |
| 20260903112535 | 53 | 294 | 6.0 | 14.0 | 0.00 | 0.00 | 0.00 | 75 | 1019.1 |
| 20260903111520 | 53 | 294 | 4.0 | 8.0 | 0.00 | 0.00 | 0.00 | 75 | 1019.0 |
| 20260903110526 | 54 | 290 | 6.0 | 10.0 | 0.00 | 0.00 | 0.00 | 72 | 1018.9 |
| 20260903105540 | 54 | 276 | 5.0 | 8.0 | 0.00 | 0.00 | 0.00 | 72 | 1018.9 |
| 20260903104518 | 53 | 285 | 5.0 | 9.0 | 0.00 | 0.00 | 0.00 | 73 | 1018.9 |
| 20260903103524 | 54 | 282 | 5.0 | 9.0 | 0.00 | 0.00 | 0.00 | 73 | 1018.7 |
| 20260903102531 | 53 | 278 | 6.0 | 10.0 | 0.00 | 0.00 | 0.00 | 74 | 1018.4 |
| 20260903101542 | 54 | 281 | 6.0 | 11.0 | 0.00 | 0.00 | 0.00 | 72 | 1018.2 |
| 20260903100529 | 54 | 269 | 6.0 | 8.0 | 0.00 | 0.00 | 0.00 | 71 | 1018.3 |
| 20260903095522 | 55 | 284 | 6.0 | 13.0 | 0.00 | 0.00 | 0.00 | 70 | 1018.2 |
| 20260903094526 | 54 | 263 | 6.0 | 10.0 | 0.00 | 0.00 | 0.00 | 71 | 1018.1 |
| 20260903093536 | 55 | 275 | 5.0 | 8.0 | 0.00 | 0.00 | 0.00 | 69 | 1018.0 |
| 20260903092536 | 55 | 263 | 5.0 | 9.0 | 0.00 | 0.00 | 0.00 | 68 | 1017.9 |
| 20260903091522 | 55 | 263 | 5.0 | 10.0 | 0.00 | 0.00 | 0.00 | 68 | 1017.7 |
| 20260903090527 | 55 | 256 | 5.0 | 8.0 | 0.00 | 0.00 | 0.00 | 69 | 1017.5 |
| 20260903085532 | 55 | 285 | 6.0 | 10.0 | 0.00 | 0.00 | 0.00 | 69 | 1017.4 |
| 20260903084517 | 54 | 281 | 5.0 | 9.0 | 0.00 | 0.00 | 0.00 | 70 | 1017.1 |
| 20260903083525 | 55 | 288 | 5.0 | 10.0 | 0.00 | 0.00 | 0.00 | 69 | 1016.9 |
| 20260903082532 | 55 | 287 | 4.0 | 7.0 | 0.00 | 0.00 | 0.00 | 68 | 1016.7 |
| 20260903081517 | 55 | 265 | 4.0 | 7.0 | 0.00 | 0.00 | 0.00 | 68 | 1016.5 |
| 20260903080523 | 55 | 278 | 4.0 | 8.0 | 0.00 | 0.00 | 0.00 | 68 | 1016.5 |
| 20260903075529 | 55 | 274 | 4.0 | 7.0 | 0.00 | 0.00 | 0.00 | 68 | 1016.3 |
| 20260903074536 | 55 | 299 | 5.0 | 10.0 | 0.00 | 0.00 | 0.00 | 68 | 1016.2 |
| 20260903073529 | 55 | 279 | 5.0 | 11.0 | 0.00 | 0.00 | 0.00 | 67 | 1016.0 |
| 20260903072528 | 56 | 282 | 4.0 | 8.0 | 0.00 | 0.00 | 0.00 | 66 | 1015.8 |
| 20260903071533 | 56 | 273 | 4.0 | 8.0 | 0.00 | 0.00 | 0.00 | 65 | 1015.8 |
| 20260903070544 | 56 | 255 | 6.0 | 11.0 | 0.00 | 0.00 | 0.00 | 65 | 1015.6 |
| 20260903065520 | 56 | 257 | 6.0 | 11.0 | 0.00 | 0.00 | 0.00 | 64 | 1015.5 |
| 20260903064526 | 56 | 273 | 6.0 | 11.0 | 0.00 | 0.00 | 0.00 | 63 | 1015.5 |
| 20260903063531 | 57 | 256 | 5.0 | 12.0 | 0.00 | 0.00 | 0.00 | 62 | 1015.5 |
| 20260903062518 | 57 | 256 | 6.0 | 11.0 | 0.00 | 0.00 | 0.00 | 61 | 1015.2 |
| 20260903061525 | 58 | 260 | 7.0 | 14.0 | 0.00 | 0.00 | 0.00 | 59 | 1015.1 |
| 20260903060538 | 57 | 252 | 7.0 | 14.0 | 0.00 | 0.00 | 0.00 | 59 | 1015.0 |
| 20260903055517 | 58 | 244 | 7.0 | 13.0 | 0.00 | 0.00 | 0.00 | 59 | 1014.9 |
| 20260903054523 | 59 | 261 | 7.0 | 14.0 | 0.00 | 0.00 | 0.00 | 57 | 1014.8 |
| 20260903053530 | 58 | 242 | 8.0 | 12.0 | 0.00 | 0.00 | 0.00 | 58 | 1014.9 |
| 20260903052536 | 59 | 254 | 7.0 | 14.0 | 0.00 | 0.00 | 0.00 | 57 | 1014.7 |
| 20260903051527 | 59 | 250 | 7.0 | 16.0 | 0.00 | 0.00 | 0.00 | 56 | 1014.5 |
| 20260903050526 | 59 | 241 | 8.0 | 14.0 | 0.00 | 0.00 | 0.00 | 56 | 1014.3 |
| 20260903045536 | 60 | 248 | 7.0 | 14.0 | 0.00 | 0.00 | 0.00 | 55 | 1014.3 |
| 20260903044530 | 60 | 254 | 6.0 | 14.0 | 0.00 | 0.00 | 0.00 | 54 | 1014.1 |
| 20260903043516 | 60 | 260 | 6.0 | 11.0 | 0.00 | 0.00 | 0.00 | 54 | 1013.8 |
| 20260903042523 | 60 | 274 | 6.0 | 14.0 | 0.00 | 0.00 | 0.00 | 54 | 1013.6 |
| 20260903041530 | 61 | 302 | 10.0 | 19.0 | 0.00 | 0.00 | 0.00 | 53 | 1013.2 |
| 20260903040523 | 61 | 288 | 8.0 | 15.0 | 0.00 | 0.00 | 0.00 | 53 | 1013.1 |
| 20260903035523 | 61 | 265 | 7.0 | 14.0 | 0.00 | 0.00 | 0.00 | 53 | 1012.8 |
| 20260903034530 | 61 | 273 | 9.0 | 20.0 | 0.00 | 0.00 | 0.00 | 52 | 1012.7 |
| 20260903033043 | 61 | 294 | 10.0 | 16.0 | 0.00 | 0.00 | 0.00 | 51 | 1012.6 |
| 20260903032025 | 61 | 275 | 7.0 | 15.0 | 0.00 | 0.00 | 0.00 | 53 | 1012.5 |
| 20260903031035 | 61 | 294 | 7.0 | 15.0 | 0.00 | 0.00 | 0.00 | 53 | 1012.4 |
| 20260903030023 | 61 | 298 | 9.0 | 17.0 | 0.00 | 0.00 | 0.00 | 52 | 1012.5 |
| 20260903025038 | 61 | 288 | 10.0 | 20.0 | 0.00 | 0.00 | 0.00 | 53 | 1012.5 |
| 20260903024019 | 60 | 277 | 10.0 | 18.0 | 0.00 | 0.00 | 0.00 | 54 | 1012.3 |
| 20260903023026 | 61 | 300 | 10.0 | 17.0 | 0.00 | 0.00 | 0.00 | 53 | 1012.4 |
| 20260903021520 | 61 | 285 | 10.0 | 13.0 | 0.00 | 0.00 | 0.00 | 53 | 1012.2 |
| 20260903021023 | 61 | 293 | 10.0 | 20.0 | 0.00 | 0.00 | 0.00 | 53 | 1012.2 |
| 20260903020030 | 61 | 312 | 10.0 | 21.0 | 0.00 | 0.00 | 0.00 | 53 | 1012.3 |
| 20260903015037 | 60 | 297 | 8.0 | 15.0 | 0.00 | 0.00 | 0.00 | 54 | 1012.2 |
| 20260903014021 | 61 | 302 | 10.0 | 23.0 | 0.00 | 0.00 | 0.00 | 52 | 1012.3 |
| 20260903013028 | 61 | 306 | 10.0 | 19.0 | 0.00 | 0.00 | 0.00 | 51 | 1012.3 |
| 20260903012033 | 61 | 300 | 10.0 | 17.0 | 0.00 | 0.00 | 0.00 | 52 | 1012.2 |
| 20260903011020 | 61 | 271 | 7.0 | 13.0 | 0.00 | 0.00 | 0.00 | 53 | 1012.2 |
| 20260903010033 | 61 | 280 | 6.0 | 15.0 | 0.00 | 0.00 | 0.00 | 53 | 1012.0 |
| 20260903005033 | 61 | 301 | 10.0 | 17.0 | 0.00 | 0.00 | 0.00 | 53 | 1011.9 |
| 20260903004019 | 61 | 287 | 9.0 | 17.0 | 0.00 | 0.00 | 0.00 | 53 | 1012.0 |
| 20260903003031 | 61 | 272 | 9.0 | 16.0 | 0.00 | 0.00 | 0.00 | 54 | 1011.9 |
| 20260903002029 | 60 | 261 | 6.0 | 14.0 | 0.00 | 0.00 | 0.00 | 56 | 1012.0 |
| 20260903001033 | 60 | 265 | 9.0 | 15.0 | 0.00 | 0.00 | 0.00 | 56 | 1011.9 |
| 20260903000018 | 60 | 269 | 7.0 | 12.0 | 0.00 | 0.00 | 0.00 | 59 | 1011.9 |
| 20260902235025 | 60 | 266 | 9.0 | 19.0 | 0.00 | 0.00 | 0.00 | 60 | 1011.8 |
| 20260902234031 | 60 | 257 | 10.0 | 17.0 | 0.00 | 0.00 | 0.00 | 58 | 1011.6 |
| 20260902233016 | 60 | 235 | 8.0 | 16.0 | 0.00 | 0.00 | 0.00 | 62 | 1011.6 |
| 20260902232035 | 60 | 238 | 9.0 | 18.0 | 0.00 | 0.00 | 0.00 | 63 | 1011.4 |
| 20260902231028 | 60 | 239 | 9.0 | 15.0 | 0.00 | 0.00 | 0.00 | 64 | 1011.2 |
| 20260902230034 | 57 | 247 | 10.0 | 21.0 | 0.00 | 0.00 | 0.00 | 64 | 1011.2 |
| 20260902225018 | 57 | 243 | 11.0 | 16.0 | 0.00 | 0.00 | 0.00 | 65 | 1011.2 |
| 20260902224017 | 58 | 253 | 10.0 | 20.0 | 0.00 | 0.00 | 0.00 | 67 | 1010.8 |
| 20260902222017 | 58 | 259 | 8.0 | 15.0 | 0.00 | 0.00 | 0.00 | 69 | 1010.7 |
| 20260902221021 | 58 | 250 | 8.0 | 15.0 | 0.00 | 0.00 | 0.00 | 72 | 1010.7 |
| 20260902220027 | 57 | 261 | 8.0 | 16.0 | 0.00 | 0.00 | 0.00 | 74 | 1010.6 |
| 20260902215037 | 57 | 255 | 8.0 | 17.0 | 0.00 | 0.00 | 0.00 | 74 | 1010.4 |
| 20260902214022 | 57 | 255 | 9.0 | 16.0 | 0.00 | 0.00 | 0.00 | 78 | 1010.2 |
| 20260902213035 | 57 | 253 | 8.0 | 13.0 | 0.00 | 0.00 | 0.00 | 81 | 1009.7 |
| 20260902212041 | 55 | 257 | 5.0 | 10.0 | 0.00 | 0.00 | 0.00 | 87 | 1009.8 |
| 20260902211019 | 55 | 282 | 5.0 | 8.0 | 0.00 | 0.00 | 0.00 | 89 | 1009.9 |
| 20260902210027 | 55 | 320 | 4.0 | 7.0 | 0.00 | 0.00 | 0.00 | 91 | 1009.8 |
| 20260902204029 | 54 | 324 | 2.0 | 4.0 | 0.00 | 0.00 | 0.00 | 95 | 1009.5 |
| 20260902203035 | 53 | 14 | 1.0 | 4.0 | 0.00 | 0.00 | 0.00 | 96 | 1009.5 |
| 20260902202036 | 53 | 293 | 1.0 | 2.0 | 0.00 | 0.00 | 0.00 | 96 | 1009.4 |
| 20260902201031 | 53 | 304 | 1.0 | 3.0 | 0.00 | 0.00 | 0.00 | 96 | 1009.4 |
| 20260902200032 | 53 | 358 | 1.0 | 3.0 | 0.00 | 0.00 | 0.00 | 96 | 1009.3 |
| 20260902195021 | 53 | 23 | 0.0 | 2.0 | 0.00 | 0.00 | 0.00 | 96 | 1009.1 |
| 20260902194018 | 53 | 354 | 1.0 | 3.0 | 0.00 | 0.00 | 0.00 | 96 | 1008.9 |
| 20260902193026 | 53 | 326 | 1.0 | 4.0 | 0.00 | 0.00 | 0.00 | 96 | 1008.9 |
| 20260902192033 | 53 | 307 | 2.0 | 6.0 | 0.00 | 0.00 | 0.00 | 96 | 1009.0 |
| 20260902191021 | 53 | 355 | 2.0 | 5.0 | 0.00 | 0.00 | 0.00 | 97 | 1008.9 |
| 20260902190030 | 53 | 338 | 2.0 | 4.0 | 0.00 | 0.00 | 0.00 | 96 | 1008.7 |
| 20260902185017 | 53 | 4 | 2.0 | 5.0 | 0.00 | 0.00 | 0.00 | 96 | 1008.4 |
| 20260902184032 | 53 | 8 | 4.0 | 7.0 | 0.00 | 0.00 | 0.00 | 96 | 1008.2 |
| 20260902183032 | 53 | 357 | 2.0 | 4.0 | 0.00 | 0.00 | 0.00 | 96 | 1008.6 |
| 20260902182020 | 54 | 359 | 2.0 | 4.0 | 0.00 | 0.00 | 0.00 | 96 | 1008.5 |
| 20260902181028 | 54 | 3 | 2.0 | 4.0 | 0.00 | 0.00 | 0.00 | 95 | 1008.5 |
| 20260902180036 | 54 | 7 | 3.0 | 6.0 | 0.00 | 0.00 | 0.00 | 95 | 1008.9 |
| 20260902175027 | 54 | 351 | 3.0 | 6.0 | 0.00 | 0.00 | 0.00 | 95 | 1008.9 |
| 20260902174039 | 54 | 257 | 2.0 | 4.0 | 0.00 | 0.00 | 0.00 | 96 | 1008.9 |
| 20260902173020 | 54 | 302 | 1.0 | 4.0 | 0.00 | 0.00 | 0.00 | 96 | 1008.7 |
| 20260902172028 | 54 | 0 | 1.0 | 3.0 | 0.00 | 0.00 | 0.00 | 96 | 1008.9 |
| 20260902171016 | 54 | 8 | 2.0 | 5.0 | 0.00 | 0.00 | 0.00 | 96 | 1009.0 |
| 20260902170031 | 54 | 2 | 2.0 | 5.0 | 0.00 | 0.00 | 0.00 | 96 | 1009.1 |
| 20260902165033 | 54 | 7 | 3.0 | 6.0 | 0.00 | 0.00 | 0.00 | 96 | 1009.7 |
| 20260902164020 | 54 | 1 | 2.0 | 6.0 | 0.00 | 0.00 | 0.00 | 95 | 1010.1 |
| 20260902163030 | 54 | 354 | 2.0 | 5.0 | 0.00 | 0.00 | 0.00 | 95 | 1010.3 |
| 20260902162017 | 54 | 5 | 3.0 | 6.0 | 0.00 | 0.00 | 0.00 | 95 | 1010.4 |
| 20260902161032 | 54 | 7 | 2.0 | 4.0 | 0.00 | 0.00 | 0.00 | 95 | 1010.4 |
| 20260902160033 | 54 | 335 | 2.0 | 4.0 | 0.00 | 0.00 | 0.00 | 94 | 1010.9 |
| 20260902155022 | 54 | 12 | 3.0 | 5.0 | 0.00 | 0.00 | 0.00 | 94 | 1010.7 |